Other Public Products
Issued by NWS Grand Forks, ND

Home | Current Version | Previous Version | Graphics & Text | Print | Product List | Glossary On
Versions: 1 2 3 4 5 6 7 8 9 10 11 12 13 14 15 16 17 18 19 20 21 22 23 24 25 26 27 28 29 30 31 32 33 34 35 36 37 38 39 40 41 42 43 44 45 46 47 48 49 50
000
FPUS83 KFGF 290510
OPUFGF
PRAIRIE TO PINES WEATHER ROUNDUP
NATIONAL WEATHER SERVICE EASTERN NORTH DAKOTA/GRAND FORKS ND
1100 PM CST SUN DEC 28 2014

 **SATELLITE DATA USED TO AUGMENT SKY COVER AT AUTOMATED STATIONS**
 *****  WEATHER ACROSS EASTERN NORTH DAKOTA  *****

CITY           SKY/WX    TMP DP  RH WIND       PRES   REMARKS
GRAND FORKS    CLEAR     -9 -14  78 NW5       30.51R WCI -20
GRAND FORKS AF PTCLDY    -6 -10  81 N9        30.51R WCI -22
GRAND CITY NWS   N/A     -8 N/A N/A N2          N/A
BUXTON         NOT AVBL
DEVILS LAKE    PTCLDY    -6 -15  65 N8        30.45R WCI -21
FARGO          CLEAR     -3 -10  72 N10       30.50R WCI -20
WAHPETON ARPT  PTCLDY     0  -8  71 N10G16    30.47R WCI -17
$$

 *****  WEATHER ACROSS CENTRAL AND WESTERN NORTH DAKOTA  *****

CITY           SKY/WX    TMP DP  RH WIND       PRES   REMARKS
JAMESTOWN      MOCLDY    -5 -10  79 N6        30.44R WCI -18
BISMARCK       CLOUDY     2  -4  76 NE6       30.44R WCI  -9
MINOT          CLEAR     -7 -13  75 NW9       30.47R WCI -24
MINOT AFB      PTCLDY   -10 -15  80 NW7       30.49R WCI -25
GARRISON         N/A     -3  -9  75 NE6       30.45R WCI -15
WILLISTON      MOCLDY    -4 -10  75 N13       30.48R WCI -23
DICKINSON      LGT SNOW   6   0  76 NE12      30.32R WCI  -9
HETTINGER      LGT SNOW   6   2  83 NE13      30.29R FOG     WCI -10
$$

 *****  OTHER OBSERVATIONS NORTHEAST NORTH DAKOTA  *****

CITY           SKY/WX    TMP DP  RH WIND       PRES   REMARKS
WALHALLA         N/A     -9 -15  77 N9        30.54R WCI -27
LANGDON        FAIR     -13 -18  77 N8        30.44R WCI -30
CAVALIER       FAIR      -8 -13  77 N16       30.53R WCI -30
GRAFTON        NOT AVBL
CANDO          FAIR      -9 -15  77 N7        30.49R WCI -24
FORT TOTTEN    NOT AVBL
ROLLA          FAIR     -11 -17  77 N13       30.44R WCI -32
RUGBY          FAIR      -9 -13  84 CALM      30.48R
 ***** THE ABOVE OBSERVATIONS ARE NON NWS ARE NOT QUALITY
        CONTROLLED AND MAY MIS-REPORT RAIN FOR SNOW...
$$

 *****  OTHER OBSERVATIONS SOUTHEAST NORTH DAKOTA *****

CITY           SKY/WX    TMP DP  RH WIND       PRES   REMARKS
COOPERSTOWN    NOT AVBL
VALLEY CITY    FAIR      -6  -8  92 NW6       30.46R WCI -18
OAKES            N/A      0  -4  85 N16       30.44R WCI -21
GWINNER        MOCLDY     1  -6  71 N13       30.45R WCI -16
SHEYENNE NWR     N/A     -4 -10  73 N7        29.95S WCI -18
BUFFALO        NOT AVBL
WYNDMERE         N/A     -2  -8  78 VRB10       N/A  WCI -19
 ***** THE ABOVE OBSERVATIONS ARE NON NWS ARE NOT QUALITY
       CONTROLLED AND MAY MIS-REPORT RAIN FOR SNOW...
$$

  *****  WEATHER ACROSS NORTHERN MINNESOTA  *****

CITY           SKY/WX    TMP DP  RH WIND       PRES   REMARKS
FLAG ISLAND    PTCLDY   -13 -18  77 NW13      30.43R WCI -34
WARROAD        PTCLDY   -11 -17  77 W3        30.45R
ROSEAU         PTCLDY    -9 -17  70 NW5       30.46R WCI -21
HALLOCK        PTCLDY    -9 -15  77 N13       30.51R WCI -30
THF RVR FALLS  PTCLDY    -8 -11  84 N10       30.45R WCI -26
HALSTAD          N/A     -6 -11  77 N9          N/A  WCI -22
FOSSTON        CLEAR    -11 -15  84 NW7       30.42R WCI -26
BAUDETTE       CLEAR    -10 -16  74 NW10      30.41R WCI -29
WASKISH        CLEAR     -8 -11  84 NW7       30.40R WCI -22
CROOKSTON      CLEAR     -9 -15  77 N6        30.51R WCI -23
$$
  *****  WEATHER ACROSS CENTRAL AND WEST MINNESOTA  *****

CITY           SKY/WX    TMP DP  RH WIND       PRES   REMARKS
BEMIDJI        FAIR     -10 -14  81 NW5       30.38R WCI -21
PARK RAPIDS    CLEAR     -3  -8  79 N8        30.36R WCI -18
WADENA         CLEAR      0  -6  78 N5        30.37R WCI -10
DETROIT LAKES  CLEAR     -4  -8  84 N9        30.41R WCI -20
MOORHEAD       CLEAR     -4  -8  84 N10G16    30.49R WCI -21
FERGUS FALLS   PTCLDY     1  -8  66 N7        30.46R WCI -11
ELBOW LAKE     FAIR       4  -1  77 N9        30.40R WCI -10
MORRIS MN      CLOUDY     9   3  78 N10       30.38R WCI  -6
STAPLES        CLEAR      1  -6  71 N7        30.37R WCI -11
WHEATON        MOCLDY     0  -6  78 NW10      30.46R WCI -17
$$
  *****  WEATHER ELSEWHERE ACROSS MINNESOTA  *****

CITY           SKY/WX    TMP DP  RH WIND       PRES   REMARKS
DULUTH         FAIR       1  -8  66 NW12G22   30.29R WCI -16
INTRNTL FALLS  CLEAR     -9 -15  75 NW6       30.38R WCI -22
ELY            CLEAR     -8 -11  84 NW5       30.31R WCI -19
CLOQUET        CLEAR      1  -8  66 NW12      30.32R WCI -15
BRAINERD       CLEAR      3  -5  69 N8        30.37R WCI -10
HIBBING        CLEAR     -3 -11  68 N9        30.32R WCI -19
ALEXANDRIA     FAIR       7  -1  70 NE8       30.36R WCI  -6
SAINT CLOUD    MOCLDY    11   0  61 N5        30.37R WCI   3
MINNEAPOLIS    MOCLDY    11  -1  58 N12G21    30.36R WCI  -3
$$

  *****  WEATHER ACROSS SOUTH DAKOTA  *****

CITY           SKY/WX    TMP DP  RH WIND       PRES   REMARKS
SIOUX FALLS    LGT SNOW  15  11  83 NE10      30.29R FOG     WCI   2
BROOKINGS      NOT AVBL
WATERTOWN      CLOUDY     6   0  76 NE8       30.33R WCI  -7
HURON          LGT SNOW  10   6  84 NE14      30.34R FOG     WCI  -6
SISSETON         N/A      2  -4  76 N15       30.42R WCI -17
ABERDEEN       CLOUDY     5  -3  69 N14       30.42R WCI -12
MITCHELL       LGT SNOW  18  15  88 NE9       30.32R FOG     WCI   7
PIERRE         MIX PCPN   9   5  84 NE17      30.29R FOG     WCI  -9
MOBRIDGE       CLOUDY     9   1  70 NE9       30.34R WCI  -4
RAPID CITY     LGT SNOW  15  11  83 N8        30.16R FOG     WCI   4
$$

  *****  SOME WEATHER IN NEARBY STATES *****

CITY           SKY/WX    TMP DP  RH WIND       PRES   REMARKS
GLASGOW MT     CLOUDY     6  -4  63 NE14      30.46R WCI -11
GREAT FALLS MT LGT SNOW   7   4  87 N16       30.36R FOG     WCI -11
CHEYENNE WY    PTCLDY    14   5  67 SW8       29.90R WCI   3
SCOTTSBLUFF NE CLOUDY    15  11  83 NW9       29.99R WCI   3
OMAHA NE       MOCLDY    24  22  91 N7        30.22R WCI  16
DES MOINES IA  CLOUDY    28  21  75 NE6       30.23R WCI  22
DAVENPORT IA   MOCLDY    24  18  77 NE5       30.24S WCI  18
CHICAGO IL     PTCLDY    24  17  74 NW6       30.24R WCI  17
EAU CLAIRE WI  MOCLDY     3  -1  83 N5        30.33R WCI  -6
LA CROSSE WI   MOCLDY    18  14  84 N5        30.32R WCI  11
$$

  *****  SOME NATIONAL WEATHER *****

CITY           SKY/WX    TMP DP  RH WIND       PRES   REMARKS
LA GUARDIA NY  CLOUDY    42  28  57 NW15G22   30.07R
RALEIGH NC     FOG       55  53  93 CALM      30.08S VSB 1/8
ATLANTA GA     LGT RAIN  58  56  93 N5        30.05F FOG
NEW ORLEANS LA LGT RAIN  57  54  89 N7        30.12F
OKLAHOMA CITY  MOCLDY    32  21  64 SE7       30.10S
ALBUQUERQUE NM PTCLDY    27  11  51 E5        30.07S WCI  22
SALT LAKE CITY CLOUDY    27  25  92 SE6       30.05S WCI  20
LOS ANGELES CA PTCLDY    53  43  68 NE5       30.20R
BOISE ID       FOG       29  28  96 W3        30.10R VSB 1/2
SEATTLE WA     CLOUDY    40  37  89 NE6       30.15S
$$

*** WEATHER ACROSS MANITOBA...SASKATCHEWAN AND ONTARIO ***
                ***ONTARIO***

CITY           SKY/WX    TMP DP  RH WIND       PRES   REMARKS
GERALDTON      CLEAR    -11 -17  77 W7        30.16R WCI -26
THUNDER BAY    CLEAR     -4 -11  71 NW10      30.33R WCI -21
SIOUX LOOKOUT  CLEAR    -15 -20  76 NW8       30.31R WCI -32
TORONTO        CLOUDY    32  23  69 W8        30.11R WCI  25
BIG TROUT LK   CLEAR    -20 -26  76 W12G18    30.13S WCI -42
PICKLE LAKE    NOT AVBL
DRYDEN         CLEAR    -17 -20  83 W8        30.32R WCI -34
KENORA         CRYSTALS -17 -22  76 NW8       30.38R WCI -34
$$
                *** MANITOBA***

CITY           SKY/WX    TMP DP  RH WIND       PRES   REMARKS
BRANDON        CLEAR    -20 -26  76 NW9       30.53R WCI -40
DAUPHIN        CLEAR    -27 -33  75 W9        30.60R WCI -49
ISLAND LAKE    CLEAR    -20 -29  63 W10       30.35R WCI -41
PILOT MOUND      N/A    -15 -18  84 N10         N/A  WCI -35
THE PAS        NOT AVBL
THOMPSON       CLEAR    -17 -24  70 NW9G17    30.41S WCI -36
WINNIPEG       CLEAR    -20 -27  69 NW7       30.56R WCI -37
CHURCHILL      CLEAR    -11 -15  84 NW23G30   30.24F BLWGSNOWWCI -38
$$
                ***SASKATCHEWAN***

CITY           SKY/WX    TMP DP  RH WIND       PRES   REMARKS
ESTEVAN        CLEAR    -13 -17  84 NW9       30.49R WCI -31
KINDERSLEY     MOCLDY   -15 -20  76 NW6       30.60R WCI -29
LLOYDMINSTER   CLOUDY    -8 -13  77 NW9       30.62R WCI -25
PRINCE ALBERT  PTCLDY   -22 -27  76 W6        30.66R WCI -38
REGINA         CLEAR    -18 -22  83 N6        30.56R WCI -33
YORKTON        CLEAR    -20 -26  76 NW8       30.55R WCI -39
N. BATTLEFORD  CLOUDY   -13 -17  84 NW6       30.67R WCI -27


USA.gov is the U.S. government's official web portal to all federal, state and local government web resources and services.